Location: Home
(42.5358°N, 72.7383°W)
Time: 11:15:15
(UTC-05:00)

Vanguard 2 Rocket - Pass Details

Date: 06 December 2021
Orbit: 553 x 3325 km, 32.9° (Epoch: 23 January)

Event Time Altitude Azimuth Distance (km) Brightness Sun altitude
Rises 19:13:47 0° 255° (WSW) 3,437 11.0 -31.6°
Reaches altitude 10° 19:15:58 10° 248° (WSW) 2,728 10.1 -32.0°
Maximum altitude 19:22:15 44° 178° (S) 1,831 8.3 -33.2°
Enters shadow 19:23:03 43° 165° (SSE) 1,922 8.3 -33.3°
Drops below altitude 10° 19:32:58 10° 112° (ESE) 4,615 - -35.2°
Sets 19:37:51 0° 108° (ESE) 6,082 - -36.0°
